Temp
21 21 19 19 19 19 19 19 19 19 19 20 20 19 19 20 20 20 20 20 20 19 19 19 19 19 19 20 20 20 20 20 20 20 20 20 20 19 20 20 20 20 19
22 20 19 19 19 19 19 19 19 19 20 20 20 19 19 19 19 19 19 19 19 19 19 19 19 19 19 19 20 20 20 20 20 20 20 20 19 19 19 20 20 19 20
22 20 19 19 19 19 19 19 19 20 20 20 19 19 19 19 19 19 19 19 19 19 19 19 19 19 19 19 19 20 20 20 20 20 20 19 19 19 19 20 19 19 19
22 20 19 18 19 19 19 19 19 20 19 19 19 19 19 19 19 19 19 19 19 19 19 19 19 19 19 19 19 20 19 20 20 20 20 19 19 19 19 19 19 19 19
21 20 19 18 18 19 19 19 19 19 19 19 19 19 19 19 18 19 19 19 19 19 19 19 19 19 19 19 19 20 20 20 19 19 19 19 19 18 19 19 19 19 19
21 20 19 18 18 18 19 19 19 19 19 19 19 19 19 18 18 19 18 18 19 19 19 19 19 19 19 19 20 20 20 20 19 19 19 19 19 18 18 19 19 18 18
21 20 19 18 18 18 19 19 19 19 19 19 19 19 19 18 18 18 19 19 19 19 19 19 19 19 19 19 19 19 19 19 19 19 19 19 20 18 18 18 18 18 18
21 20 19 17 18 18 19 19 19 19 18 18 19 19 18 18 18 18 18 19 19 19 19 19 19 18 18 19 18 19 19 19 19 19 19 20 19 18 18 18 18 18 18
21 20 19 17 17 18 18 19 19 18 18 18 18 18 18 18 18 18 18 18 18 19 19 19 18 18 18 18 17 18 19 19 19 19 19 19 18 18 17 17 18 18 18
21 20 19 17 17 17 18 18 18 17 18 17 18 18 18 18 17 17 17 18 18 18 18 18 18 18 18 17 17 18 19 19 19 19 19 18 18 17 17 16 17 17 17
20 20 19 18 17 17 17 17 17 17 17 17 17 18 17 17 17 17 17 17 17 18 18 18 17 18 18 17 17 17 19 19 19 19 18 17 17 17 16 16 17 16 16
20 19 20 19 18 17 17 17 17 17 17 17 17 17 16 17 17 17 17 17 17 17 17 17 17 16 16 16 16 17 18 17 18 18 17 17 17 16 16 16 16 15 15
20 20 19 18 19 18 17 17 16 16 16 16 16 16 16 16 16 17 17 17 16 16 16 16 16 16 16 16 16 16 16 18 17 16 16 16 16 15 15 15 15 14 14
19 19 20 19 18 18 17 17 17 16 15 16 17 16 16 16 16 16 15 15 16 16 16 15 15 15 15 15 15 15 15 16 15 15 15 15 15 15 14 14 14 14 14
18 18 19 19 17 17 17 17 17 16 17 16 16 16 15 15 14 14 15 15 15 16 15 14 15 15 14 15 14 15 14 14 14 14 14 14 14 14 14 14 13 13 13
8 12 18 18 17 17 17 17 16 16 16 16 15 15 13 14 13 13 14 14 14 14 14 14 14 14 13 13 13 13 13 13 13 13 13 13 13 13 13 13 13 13 12
2 6 11 16 16 16 17 17 16 16 16 15 14 14 13 14 13 14 13 13 13 13 14 14 13 13 12 12 11 11 11 11 11 12 12 12 12 13 13 13 13 13 12
0 2 4 10 13 15 16 16 15 15 15 14 13 14 13 14 13 13 14 13 13 13 13 13 12 12 11 11 10 10 10 10 10 11 11 11 11 11 12 12 12 12 12
-2 -1 1 4 6 10 14 15 15 15 14 12 12 13 13 13 13 13 13 13 13 13 13 12 11 11 10 9 8 8 8 10 11 11 11 11 11 11 11 11 11 11 11
-3 -3 -2 0 3 7 9 14 14 13 13 12 12 12 13 13 13 13 12 12 12 11 11 11 10 8 8 7 7 7 8 8 9 10 10 10 10 10 10 10 10 10 10
-5 -4 -4 -2 -1 3 4 10 12 12 12 12 12 12 13 13 13 13 13 12 11 11 10 9 8 8 5 7 6 5 6 7 8 8 9 9 9 10 10 10 10 9 9
-6 -6 -5 -4 -3 -1 1 4 7 12 12 12 11 11 12 12 12 13 12 11 11 10 10 9 10 7 6 8 6 7 5 5 5 7 8 8 8 8 8 9 9 9 9
-7 -7 -6 -5 -4 -3 -1 3 7 11 12 11 11 11 11 11 11 12 11 11 10 10 9 9 9 8 7 6 8 7 6 6 4 5 6 7 7 7 7 8 8 8 8
-8 -8 -8 -7 -6 -5 -3 0 0 3 11 11 11 11 11 11 11 11 10 10 10 9 8 8 8 9 8 7 8 10 10 8 4 4 5 6 7 7 6 6 7 7 7
-9 -9 -9 -8 -7 -6 -5 -2 -1 2 9 12 11 11 11 10 10 9 9 9 9 8 8 8 8 8 9 9 9 9 7 8 7 4 3 4 5 5 6 5 5 6 6
-10 -10 -10 -9 -8 -7 -6 -4 -2 -1 2 9 10 10 10 10 9 9 9 9 9 8 7 7 8 9 9 10 11 11 10 9 6 5 3 3 3 4 5 5 5 5 5
Height
743 744 747 749 752 755 759 762 765 769 771 772 775 777 779 780 782 784 786 786 788 789 791 793 794 796 798 799 800 802 803 805 806 808 808 809 811 813 814 816 818 820 822
741 744 747 749 751 755 759 762 765 768 770 772 775 777 779 780 782 784 786 787 788 789 792 793 795 797 798 799 800 802 802 804 806 808 809 810 812 814 816 817 818 821 823
740 744 748 750 752 755 758 761 764 767 770 772 775 777 779 780 782 784 785 786 788 790 792 793 794 797 798 799 800 801 802 804 806 808 808 811 813 815 817 819 821 822 825
740 744 747 751 753 756 759 760 763 767 769 772 774 776 778 780 781 783 785 786 787 789 791 792 794 797 797 799 801 801 803 804 806 808 809 812 814 817 819 820 823 824 826
740 743 746 750 753 756 758 759 763 766 768 771 772 775 778 779 781 782 784 785 786 787 789 791 793 796 799 800 801 802 803 805 808 810 811 812 814 818 820 822 825 827 828
739 741 745 748 751 754 756 759 762 765 767 769 770 773 776 779 780 781 782 783 785 786 788 791 793 796 799 801 802 804 805 807 809 812 813 813 816 819 822 824 827 830 831
736 739 743 747 750 753 755 758 761 763 766 768 769 771 774 777 779 780 780 782 784 785 787 790 792 795 799 801 805 805 807 810 810 813 815 817 818 821 824 827 830 833 835
734 739 743 747 749 751 754 756 759 761 764 767 767 769 772 775 778 778 779 781 782 785 786 789 792 795 797 799 803 808 809 810 811 814 816 818 819 822 825 827 831 834 837
734 737 742 746 749 751 753 755 757 760 762 764 766 768 770 774 776 778 779 779 781 783 786 788 792 794 797 799 802 809 810 811 811 813 816 818 821 825 827 830 833 836 840
733 737 741 745 748 751 753 755 756 758 759 761 764 766 768 771 774 776 776 777 779 782 784 787 790 793 796 799 801 805 811 811 813 814 816 813 807 816 824 830 834 838 841
734 736 739 742 746 748 752 754 756 758 758 759 761 764 765 768 771 774 774 774 777 779 783 787 789 793 795 799 803 805 811 812 814 815 818 820 810 816 826 828 836 839 840
734 735 736 740 743 747 750 752 753 756 758 759 760 762 763 765 767 770 770 772 776 778 782 784 787 790 794 798 803 805 810 813 814 817 821 823 826 829 832 836 839 844 846
734 736 737 738 741 743 747 750 752 754 755 757 759 760 761 764 766 768 767 767 773 777 781 783 785 789 794 797 802 805 811 812 817 820 824 824 828 831 835 840 843 847 849
730 733 736 738 740 742 745 748 751 753 754 755 757 760 760 763 764 765 763 764 770 775 779 781 785 788 794 797 800 807 810 813 818 821 824 828 833 836 838 843 846 849 853
732 732 735 738 739 740 742 746 749 752 753 754 756 758 760 762 762 763 763 764 767 772 775 778 784 787 793 798 802 808 811 816 820 823 827 831 835 839 842 844 848 851 854
740 738 737 738 740 741 741 743 746 750 752 753 754 757 757 760 761 763 762 763 765 770 774 777 782 788 791 797 802 809 814 819 823 826 830 832 839 842 844 845 851 854 858
747 739 735 738 739 739 739 741 744 748 751 753 754 755 755 759 760 762 763 763 765 769 772 777 785 791 796 801 807 812 816 820 826 830 833 837 844 846 848 852 856 859 862
750 741 739 736 737 738 736 739 742 745 749 752 754 754 754 756 759 762 764 766 766 770 773 778 785 792 798 804 810 816 820 825 829 834 838 842 844 850 854 856 859 861 865
755 748 741 737 736 734 735 736 741 744 749 751 754 754 755 756 758 761 763 766 767 773 778 782 786 792 798 808 814 823 826 825 832 841 841 845 847 852 854 860 863 865 867
761 754 747 742 740 734 733 734 739 743 746 750 751 753 755 757 759 762 763 764 767 772 778 783 787 796 802 808 814 823 828 834 838 842 846 850 853 857 860 863 864 868 871
764 755 749 744 742 738 737 736 735 740 744 748 750 752 753 756 760 763 765 768 770 771 778 783 788 791 806 811 812 828 836 842 845 849 851 855 859 859 864 866 868 870 873
772 763 754 754 747 745 743 737 738 737 739 745 749 751 753 755 758 762 765 768 773 774 778 784 787 796 804 809 816 825 841 851 850 854 856 860 861 862 865 869 872 874 877
775 768 761 756 754 747 744 738 733 735 735 741 746 749 751 754 756 760 764 767 770 774 776 781 785 787 798 808 811 815 835 846 852 860 860 864 866 866 868 870 873 876 879
782 773 765 761 752 751 748 739 741 739 731 733 738 744 748 752 754 759 762 766 769 772 775 779 784 788 790 801 808 810 814 822 840 859 863 865 867 869 870 871 874 876 879
786 777 768 761 757 754 750 746 741 733 733 729 732 740 746 749 751 755 760 764 767 770 774 778 782 787 791 794 799 806 813 823 829 838 856 862 866 869 870 872 874 876 879
793 784 778 772 767 760 753 750 742 739 733 731 727 734 741 746 749 752 757 762 765 768 770 775 779 784 789 795 800 803 805 814 823 830 845 857 863 869 871 872 874 877 880
Wind_Speed
13 19 23 20 18 18 17 17 16 16 13 11 10 9 8 7 7 8 8 9 10 10 10 10 11 11 11 11 12 14 14 13 14 15 16 17 19 22 23 23 23 22 23
16 20 23 20 19 19 18 17 16 16 13 10 9 8 8 8 7 8 8 8 9 10 10 10 11 10 11 11 12 13 13 14 15 17 18 20 23 25 23 24 25 23 24
17 20 22 20 19 18 18 17 16 15 14 11 10 9 8 8 9 9 9 9 9 9 10 11 12 12 12 12 12 13 15 16 18 20 23 25 27 24 23 25 25 25 25
17 20 22 19 20 17 17 18 17 14 16 12 11 10 9 9 10 9 9 9 9 10 11 12 14 13 14 12 12 15 16 19 20 23 27 28 26 24 25 26 26 26 27
16 19 21 21 20 18 18 18 16 16 15 13 12 10 9 9 9 10 10 9 9 11 13 14 15 15 13 13 14 16 18 20 21 23 28 28 26 25 27 27 27 29 30
16 18 21 21 20 18 17 18 16 16 14 14 13 11 10 9 9 10 10 11 11 12 13 14 16 16 14 13 15 16 18 22 22 19 26 25 26 26 27 28 29 31 33
18 18 21 21 21 19 17 19 17 15 14 13 12 11 11 10 10 11 11 11 11 12 13 14 17 18 16 14 13 19 21 18 16 22 23 23 26 26 27 30 30 30 30
21 20 20 21 21 21 17 15 15 15 14 13 12 12 11 11 11 12 12 13 11 10 12 14 17 19 19 20 15 17 18 13 18 20 21 23 26 27 30 32 33 33 32
22 24 21 19 20 21 19 18 17 15 14 13 12 12 12 11 11 13 12 13 12 10 13 13 18 22 22 24 21 18 18 19 18 18 20 24 26 27 32 33 33 32 31
24 21 19 20 20 19 21 19 17 15 16 15 14 12 11 12 13 14 14 12 12 11 13 17 24 25 29 26 27 18 18 20 18 20 18 21 35 28 41 30 28 26 29
23 21 18 19 22 21 20 20 17 16 16 15 14 12 12 13 15 15 16 15 15 14 15 18 26 27 28 24 24 23 20 20 22 25 25 29 42 36 32 33 34 33 31
21 20 19 18 20 22 22 21 19 16 14 14 14 13 15 15 14 14 15 15 18 18 17 22 28 33 33 29 25 22 19 22 29 32 30 35 40 38 37 36 35 32 31
12 16 16 21 19 22 25 22 16 16 14 14 14 17 15 14 11 14 16 18 18 21 23 32 36 38 36 30 26 25 27 30 35 34 33 37 36 36 35 33 33 31 29
18 18 16 13 16 26 26 21 15 16 19 18 16 18 15 13 12 11 10 18 21 29 31 33 35 37 35 31 32 35 38 41 38 37 33 35 34 34 34 32 30 28 26
14 14 19 15 17 23 23 20 17 18 18 17 18 16 14 14 12 11 16 21 24 33 34 34 40 38 37 37 41 41 42 41 39 38 35 34 32 30 30 29 27 25 24
24 14 16 16 13 20 22 20 19 20 19 19 19 16 17 17 14 16 21 28 31 32 35 38 37 39 40 43 42 41 39 39 37 34 33 34 30 27 27 26 25 25 25
27 20 18 17 18 16 18 19 23 21 20 19 19 17 20 18 18 21 28 34 35 38 38 39 37 39 38 40 39 40 40 39 36 35 35 33 28 28 27 25 25 24 23
32 32 23 12 5 11 22 22 24 22 20 19 20 19 21 20 21 26 31 34 38 36 41 44 43 37 34 36 36 37 37 38 35 34 34 33 32 28 25 24 23 23 22
34 33 31 23 18 16 19 22 22 20 19 22 22 22 23 23 24 28 33 37 43 40 41 41 38 45 43 37 35 29 29 37 35 32 32 30 29 28 29 24 23 23 22
35 33 32 30 27 21 15 24 22 22 19 22 26 26 26 26 27 31 35 38 43 42 40 45 47 39 41 39 41 38 36 33 32 30 29 27 25 25 25 24 24 22 20
37 39 38 37 35 28 23 7 24 23 22 24 25 26 29 28 28 30 35 36 40 41 43 49 49 52 38 42 39 35 34 31 29 25 24 24 24 23 22 22 23 23 21
37 37 39 36 35 30 26 23 12 23 27 26 25 24 26 29 31 33 39 41 38 42 47 48 53 37 37 29 19 22 4 11 20 19 20 19 20 21 21 21 20 21 22
40 39 38 36 33 33 32 24 22 17 26 24 24 26 27 29 31 35 39 40 39 44 48 49 48 45 31 24 27 11 4 3 10 10 14 15 17 18 18 18 17 18 19
39 39 38 38 35 34 32 28 25 21 21 24 32 28 28 29 32 35 40 40 43 38 42 46 41 34 36 35 17 15 10 28 4 3 9 12 14 16 17 16 16 15 15
39 40 41 41 38 37 34 30 28 23 15 30 33 30 29 31 33 35 39 38 37 38 39 39 41 36 34 38 20 25 24 22 14 6 4 10 14 14 15 15 14 14 14
39 41 41 40 35 38 36 31 31 27 25 17 30 34 34 33 35 36 39 39 38 38 39 40 39 40 37 33 28 31 30 17 13 10 5 11 13 13 14 14 14 13 13
Wind_Direction
171 171 169 164 161 160 159 156 158 159 162 155 158 158 157 152 159 161 159 153 152 153 152 155 156 162 164 161 155 156 161 159 154 152 152 151 145 137 138 136 132 126 131
170 174 169 165 161 160 160 160 163 162 163 160 164 169 167 158 163 169 167 165 163 162 163 168 163 163 161 159 165 169 168 163 158 155 151 147 142 137 138 138 135 130 132
167 172 169 167 165 161 163 165 162 166 168 170 169 170 170 175 178 183 177 180 171 171 172 176 171 169 164 166 161 161 164 166 163 158 151 145 140 141 139 140 137 133 131
166 171 169 169 162 164 171 168 168 174 175 176 174 171 179 186 189 189 188 182 182 179 179 181 180 181 172 170 163 156 157 157 155 152 149 148 146 146 144 138 133 129 128
164 171 172 169 168 168 175 171 172 174 176 175 172 175 190 193 191 194 191 190 186 182 182 186 183 181 175 167 163 158 156 153 150 153 152 153 149 146 143 135 131 126 122
166 173 173 170 173 173 175 168 174 176 178 178 177 181 188 195 183 182 179 186 186 184 186 189 187 183 175 169 164 159 155 148 151 161 162 157 150 148 141 137 131 126 124
169 178 175 173 174 174 172 174 179 180 183 185 182 184 194 198 195 186 184 182 174 183 186 190 188 181 171 164 166 153 153 160 168 168 168 163 154 149 139 132 127 125 122
173 178 182 175 176 175 177 174 183 187 186 189 188 190 196 201 204 193 193 185 183 182 186 190 189 179 175 167 155 164 165 172 167 172 174 169 162 152 140 131 127 124 119
177 177 179 177 184 181 176 176 183 190 186 189 192 196 200 205 209 197 204 197 204 203 195 198 185 181 169 159 164 184 178 173 169 161 172 170 165 143 129 127 122 120 120
174 181 182 183 184 187 186 187 189 191 196 188 193 198 203 211 218 211 201 201 192 186 189 183 178 175 168 164 167 176 186 177 164 150 145 179 154 135 130 123 119 128 118
168 182 186 191 190 189 191 191 193 202 194 189 194 200 202 208 213 211 207 208 210 199 196 185 172 173 166 163 167 175 187 169 147 139 131 131 108 137 126 122 122 120 121
172 179 188 193 193 197 199 196 195 202 197 196 193 191 192 204 210 216 215 209 209 201 187 185 178 166 162 161 163 175 169 158 134 129 129 119 115 118 114 112 113 111 109
190 186 178 196 192 194 196 189 193 194 181 173 177 187 190 201 216 233 222 204 195 192 170 154 152 164 161 153 142 143 137 136 125 121 122 115 114 113 113 112 111 108 107
208 208 194 174 195 196 184 178 168 180 174 172 183 184 192 207 229 211 189 186 183 180 172 160 153 156 155 146 141 134 126 123 116 114 112 115 113 113 112 111 109 108 109
232 204 205 195 175 177 171 168 176 187 186 186 182 191 200 203 190 170 172 179 181 174 170 150 147 142 146 140 136 134 126 127 118 115 108 109 108 108 110 109 109 109 110
8 352 216 216 204 190 179 179 185 197 194 196 191 201 199 193 178 171 159 153 159 164 153 140 137 132 126 132 126 131 125 123 119 115 110 107 105 107 105 106 109 111 114
1 9 25 242 219 208 197 188 192 200 200 201 201 197 189 193 179 168 153 149 140 142 145 137 130 133 122 123 120 122 118 118 119 115 112 110 110 108 105 110 114 116 116
5 12 8 11 315 235 196 188 189 192 197 202 189 187 183 182 178 169 161 149 142 133 131 129 127 117 113 113 110 111 112 116 116 119 119 120 114 111 108 111 113 114 115
5 5 10 16 9 8 193 180 186 187 200 194 187 181 174 171 173 171 169 153 150 142 135 127 120 125 118 111 108 109 108 113 118 122 116 121 116 118 120 118 116 116 114
4 3 9 13 11 9 14 179 178 183 197 190 189 185 179 169 166 166 159 149 146 138 133 134 128 119 119 112 106 101 106 111 119 116 114 116 121 122 122 124 120 113 113
7 4 6 4 7 9 3 13 177 178 189 190 190 188 183 182 179 172 166 158 148 142 139 138 134 129 116 118 105 87 91 100 106 112 120 123 126 127 133 131 128 125 119
4 4 3 358 0 3 350 347 331 194 188 195 197 194 192 191 188 182 172 162 157 151 151 146 145 134 133 135 128 115 93 65 85 105 121 126 132 137 136 137 139 135 132
3 2 2 357 357 359 352 348 346 202 173 174 191 193 196 196 191 189 180 169 164 163 159 157 155 150 148 148 144 132 136 145 128 101 122 142 142 144 149 152 150 147 145
357 358 359 356 1 358 355 357 342 332 172 178 185 194 197 199 196 192 185 176 172 169 165 166 163 158 153 156 147 142 134 146 142 134 137 153 161 158 156 158 160 162 166
0 358 357 358 358 357 359 356 344 337 258 189 178 186 192 196 197 194 184 175 172 173 171 168 164 162 161 161 156 146 135 147 123 139 148 153 155 164 165 164 164 162 160
1 0 358 356 356 357 358 355 351 341 334 197 171 177 186 194 195 193 186 180 178 176 174 174 169 168 168 172 166 161 148 164 155 145 112 144 141 152 163 167 171 168 169